Regional Weather Roundup
Issued by NWS

Home | Current Version | Previous Version | Graphics & Text | Print | Product List | Glossary On
Versions: 1 2 3 4 5 6 7 8 9 10 11 12 13 14 15 16 17 18 19 20 21 22 23 24 25 26 27 28 29 30 31 32 33 34 35 36 37 38 39 40 41 42 43 44 45 46 47 48 49 50
000
ASUS43 KBIS 290510
RWRND
NORTH DAKOTA REGIONAL WEATHER ROUNDUP
NATIONAL WEATHER SERVICE EASTERN NORTH DAKOTA/GRAND FORKS ND
1200 AM CDT THU JUN 29 2017

  NOTE: "FAIR" INDICATES FEW OR NO CLOUDS BELOW 12,000 FEET WITH NO
  SIGNIFICANT WEATHER AND/OR OBSTRUCTIONS TO VISIBILITY.

NDZ001>003-009>011-017-290600-
...NORTHWEST NORTH DAKOTA...

CITY           SKY/WX    TMP DP  RH WIND       PRES   REMARKS
WILLISTON      MOCLDY    60  49  66 N3        29.79R
MINOT          FAIR      60  50  69 N3        29.75R
MINOT AFB      FAIR      63  52  66 CALM      29.74S
$$

NDZ018>021-031>035-040>046-290600-
...SOUTHWEST NORTH DAKOTA...

CITY           SKY/WX    TMP DP  RH WIND       PRES   REMARKS
BISMARCK       FAIR      65  53  65 CALM      29.76R
DICKINSON      FAIR      61  42  49 CALM      29.77R
GARRISON         N/A     60  52  74 NE3       29.76R
HETTINGER      MOCLDY    69  36  29 S9G20     29.81R
$$

NDZ004>008-012>016-024-026-027-054-290600-
...NORTHEAST NORTH DAKOTA...

CITY           SKY/WX    TMP DP  RH WIND       PRES   REMARKS
GRAND FORKS    CLOUDY    64  62  93 NE8       29.70R
GRAND FORKS AF FOG       55  55 100 N3        29.71R VSB 1/4
DEVILS LAKE    FAIR      62  56  80 NW7       29.74R
$$

NDZ022-023-025-028>030-036>039-047>053-290600-
...SOUTHEAST NORTH DAKOTA...

CITY           SKY/WX    TMP DP  RH WIND       PRES   REMARKS
JAMESTOWN      FAIR      60  52  74 CALM      29.72F
FARGO          FAIR      61  60  97 NW5       29.69R
WAHPETON       FAIR      61  59  94 N3        29.70R
$$



USA.gov is the U.S. government's official web portal to all federal, state and local government web resources and services.